Lubbock, TX

6:16 PM CST on November 20, 2019 (GMT -0600)
Lubbock International

Weather History for KLBB - August, 2019

Change the Weather History Date:

Sunday, August 4, 2019

  Actual Average Record
Temperature  
Mean Temperature 82 °F 80 °F  
Max Temperature 95 °F 93 °F 105 °F (2003)
Min Temperature 68 °F 68 °F 57 °F (1915)
Degree Days  
Heating Degree Days 0 0  
Month to date heating degree days 0 0  
Since 1 June heating degree days 0 2  
Since 1 July heating degree days 0 0  
Cooling Degree Days 17 15  
Month to date cooling degree days 80 60  
Year to date cooling degree days 1187 1153  
Since 1 June cooling degree days 977 907  
Growing Degree Days 32 (Base 50)    
Moisture  
Dew Point 61 °F    
Average Humidity 58    
Maximum Humidity 90    
Minimum Humidity 26    
Precipitation  
Precipitation 0.00 in 0.06 in 1.45 in (1939)
Month to date precipitation 0.03 0.24  
Year to date precipitation 13.48 11.40  
Snow  
Snow 0.00 in 0.00 in 0.00 in (2002)
Month to date snowfall 0.0 0.0  
Since 1 June snowfall 0.0 0.0  
Since 1 July snowfall 0.0 0.0  
Snow Depth 0.00 in    
Sea Level Pressure  
Sea Level Pressure 29.95 in    
Wind  
Wind Speed 8 mph (NE)    
Max Wind Speed 18 mph    
Max Gust Speed 24 mph    
Visibility 9 miles    
Events      
T = Trace of Precipitation, MM = Missing Value Source: NWS Daily Summary

Daily Weather History Graph

Daily Weather History Graph

Search for Another Location

Airport or City:

Astronomy

Aug. 04, 2019 Rise Set
Actual Time 7:01 AM CDT 8:44 PM CDT
Civil Twilight 6:34 AM CDT 9:11 PM CDT
Nautical Twilight 6:01 AM CDT 9:44 PM CDT
Astronomical Twilight 5:27 AM CDT 10:18 PM CDT
Moon 10:59 AM CDT (8/4) 11:37 PM CDT (8/4)
Length of Visible Light 14h 37m
Length of Day
13h 43m
Waxing Crescent, 18% of the Moon is Illuminated
Aug 4
Waxing Crescent
Aug 7
First Quarter
Aug 15
Full
Aug 23
Last Quarter
Aug 30
New

Hourly Weather History & Observations

Time (CDT) Temp. Heat Index Dew Point Humidity Pressure Visibility Wind Dir Wind Speed Gust Speed Precip Events Conditions
12:53 AM 72.0 °F - 66.9 °F 84% 29.93 in 10.0 mi NNE 8.1 mph - N/A   Mostly Cloudy
1:53 AM 70.0 °F - 66.9 °F 90% 29.93 in 10.0 mi NNE 6.9 mph - N/A   Mostly Cloudy
2:53 AM 71.1 °F - 66.0 °F 84% 29.92 in 10.0 mi NE 9.2 mph - N/A   Mostly Cloudy
3:53 AM 70.0 °F - 64.9 °F 84% 29.94 in 10.0 mi NE 6.9 mph - N/A   Mostly Cloudy
4:53 AM 69.1 °F - 64.9 °F 87% 29.96 in 10.0 mi NNE 3.5 mph - N/A   Mostly Cloudy
5:53 AM 68.0 °F - 64.9 °F 90% 29.98 in 10.0 mi NNE 8.1 mph - N/A   Mostly Cloudy
6:53 AM 68.0 °F - 64.9 °F 90% 29.99 in 6.0 mi NE 6.9 mph - N/A   Mostly Cloudy
7:53 AM 71.1 °F - 66.9 °F 87% 30.01 in 5.0 mi NNE 4.6 mph - N/A   Mostly Cloudy
8:53 AM 77.0 °F - 69.1 °F 76% 30.02 in 6.0 mi NNE 4.6 mph - N/A   Haze
9:53 AM 81.0 °F 84.1 °F 69.1 °F 67% 30.02 in 8.0 mi NE 5.8 mph - N/A   Mostly Cloudy
10:53 AM 84.0 °F 86.3 °F 66.0 °F 55% 30.01 in 10.0 mi Variable 5.8 mph - N/A   Mostly Cloudy
11:53 AM 86.0 °F 86.8 °F 63.0 °F 46% 30.00 in 10.0 mi North 5.8 mph - N/A   Mostly Cloudy
12:53 PM 90.0 °F 90.3 °F 62.1 °F 39% 29.97 in 10.0 mi NE 9.2 mph - N/A   Scattered Clouds
1:53 PM 91.0 °F 90.2 °F 59.0 °F 34% 29.95 in 10.0 mi NNE 8.1 mph 19.6 mph N/A   Scattered Clouds
2:53 PM 93.0 °F 91.7 °F 57.0 °F 30% 29.93 in 10.0 mi NE 11.5 mph 19.6 mph N/A   Scattered Clouds
3:53 PM 93.9 °F 91.4 °F 53.1 °F 25% 29.91 in 10.0 mi ENE 10.4 mph 17.3 mph N/A   Mostly Cloudy
4:53 PM 93.0 °F 90.8 °F 54.0 °F 27% 29.91 in 10.0 mi East 11.5 mph - N/A   Mostly Cloudy
5:53 PM 93.9 °F 91.4 °F 53.1 °F 25% 29.90 in 10.0 mi ENE 10.4 mph - N/A   Scattered Clouds
6:53 PM 91.0 °F - 52.0 °F 26% 29.89 in 10.0 mi East 11.5 mph - N/A   Scattered Clouds
7:53 PM 88.0 °F - 52.0 °F 29% 29.89 in 10.0 mi East 8.1 mph - N/A   Mostly Cloudy
8:53 PM 82.0 °F 81.6 °F 55.9 °F 41% 29.90 in 10.0 mi East 8.1 mph - N/A   Scattered Clouds
9:53 PM 78.1 °F - 57.0 °F 48% 29.90 in 10.0 mi East 8.1 mph - N/A   Scattered Clouds
10:53 PM 75.9 °F - 57.0 °F 52% 29.92 in 10.0 mi ESE 5.8 mph - N/A   Mostly Cloudy
11:53 PM 73.9 °F - 57.0 °F 55% 29.94 in 10.0 mi East 6.9 mph - N/A   Scattered Clouds